Terminal Aerodrome Forecast
Issued by NWS Northern Indiana

Home | Current Version | Previous Version | Graphics & Text | Print | Product List | Glossary On
Versions: 1 2 3 4 5 6 7 8 9 10 11 12 13 14 15 16 17
153
FTUS43 KIWX 221139
TAFFWA
TAF
KFWA 221139Z 2212/2312 VRB02KT 6SM BR OVC090
     FM221300 08003KT 2SM BR BKN015
     FM221600 05006KT P6SM SCT020 OVC100
     FM222300 03008KT P6SM OVC012
     FM230100 02008KT 3SM BR OVC006
     FM230300 01010KT 1SM BR VCSH OVC004=

USA.gov is the U.S. government's official web portal to all federal, state and local government web resources and services.